When you browse on this site, cookies collect data to enhance your experience and personalize the content and advertising you see.
Visit our Privacy Policy to learn more. By continuing to use the site, you agree to this use of cookies and data.
  • In Hungary
  • List of Countries
  • For 7 days
  • Water Temperature
  • Weather Map
  • News
  • Weather Widgets
  • user-avatar
    Login

    Hourly Weather Ukiernica

    Today, 12 December, Thursday

    Time Temperature Precipitation Wind Pressure Humidity
    00:00 -2°C° 0 mm 4 mps 751 mmHg 73%
    01:00 -2°C° 0 mm 4 mps 751 mmHg 73%
    02:00 -2°C° 0 mm 4 mps 750 mmHg 72%
    03:00 -1°C° 0 mm 3 mps 749 mmHg 71%
    04:00 -1°C° 0 mm 3 mps 749 mmHg 70%
    05:00 -1°C° 0 mm 3 mps 749 mmHg 72%
    06:00 -1°C° 0 mm 3 mps 749 mmHg 75%
    07:00 0°C° 0 mm 3 mps 749 mmHg 77%
    08:00 -1°C° 0.1 mm 4 mps 749 mmHg 82%
    09:00 0°C° 0.1 mm 4 mps 748 mmHg 86%
    10:00 0°C° 0.1 mm 4 mps 748 mmHg 90%
    11:00 +1°C° 0 mm 4 mps 748 mmHg 91%
    12:00 +1°C° 0 mm 4 mps 748 mmHg 92%
    13:00 +3°C° 0 mm 3 mps 749 mmHg 93%
    14:00 +3°C° 0 mm 3 mps 748 mmHg 93%
    15:00 +3°C° 0 mm 3 mps 748 mmHg 93%
    16:00 +2°C° 0 mm 3 mps 748 mmHg 92%
    17:00 +2°C° 0 mm 3 mps 748 mmHg 92%
    18:00 +1°C° 0 mm 4 mps 748 mmHg 92%
    19:00 +1°C° 0 mm 4 mps 748 mmHg 91%
    20:00 0°C° 0 mm 4 mps 747 mmHg 91%
    21:00 0°C° 0 mm 4 mps 747 mmHg 91%
    22:00 -1°C° 0 mm 4 mps 746 mmHg 91%
    23:00 -1°C° 0 mm 4 mps 746 mmHg 91%

    Tomorrow, 13 December, Friday

    Time Temperature Precipitation Wind Pressure Humidity
    00:00 -1°C° 0 mm 4 mps 745 mmHg 91%
    01:00 -1°C° 0 mm 4 mps 745 mmHg 90%
    02:00 -1°C° 0 mm 4 mps 744 mmHg 89%
    03:00 -1°C° 0 mm 4 mps 743 mmHg 88%
    04:00 -2°C° 0 mm 5 mps 742 mmHg 88%
    05:00 -2°C° 0 mm 5 mps 741 mmHg 87%
    06:00 -2°C° 0 mm 5 mps 740 mmHg 87%
    07:00 -2°C° 0 mm 5 mps 740 mmHg 87%
    08:00 -1°C° 0 mm 5 mps 739 mmHg 87%
    09:00 -2°C° 0 mm 6 mps 739 mmHg 87%
    10:00 -1°C° 0 mm 6 mps 738 mmHg 86%
    11:00 +1°C° 0 mm 6 mps 738 mmHg 82%
    12:00 +1°C° 0 mm 6 mps 737 mmHg 78%
    13:00 +2°C° 0 mm 6 mps 737 mmHg 74%
    14:00 +2°C° 0 mm 5 mps 737 mmHg 77%
    15:00 +2°C° 0 mm 5 mps 737 mmHg 81%
    16:00 +1°C° 0 mm 5 mps 736 mmHg 85%
    17:00 +1°C° 0 mm 5 mps 736 mmHg 86%
    18:00 +1°C° 0 mm 5 mps 737 mmHg 87%
    19:00 0°C° 0 mm 4 mps 737 mmHg 89%
    20:00 0°C° 0 mm 4 mps 737 mmHg 89%
    21:00 0°C° 0 mm 4 mps 737 mmHg 88%
    22:00 0°C° 0 mm 4 mps 737 mmHg 88%
    23:00 0°C° 0 mm 5 mps 737 mmHg 87%

    Day after tomorrow, 14 December, Saturday

    Time Temperature Precipitation Wind Pressure Humidity
    00:00 +1°C° 0 mm 5 mps 737 mmHg 86%
    01:00 +1°C° 0 mm 5 mps 737 mmHg 85%
    02:00 +2°C° 0.4 mm 6 mps 737 mmHg 88%
    03:00 +2°C° 0.4 mm 6 mps 738 mmHg 90%
    04:00 +2°C° 0.4 mm 6 mps 738 mmHg 93%
    05:00 +3°C° 0.2 mm 7 mps 738 mmHg 89%
    06:00 +3°C° 0.2 mm 7 mps 738 mmHg 85%
    07:00 +3°C° 0.2 mm 7 mps 739 mmHg 81%
    08:00 +3°C° 0 mm 7 mps 739 mmHg 82%
    09:00 +3°C° 0 mm 7 mps 739 mmHg 83%
    10:00 +3°C° 0 mm 7 mps 740 mmHg 83%
    11:00 +3°C° 0 mm 7 mps 739 mmHg 80%
    12:00 +3°C° 0 mm 7 mps 739 mmHg 76%
    13:00 +3°C° 0 mm 7 mps 739 mmHg 72%
    14:00 +3°C° 0.6 mm 7 mps 739 mmHg 78%
    15:00 +3°C° 0.6 mm 7 mps 739 mmHg 84%
    16:00 +3°C° 0.6 mm 7 mps 739 mmHg 91%
    17:00 +2°C° 0.1 mm 8 mps 740 mmHg 85%
    18:00 +2°C° 0.1 mm 8 mps 741 mmHg 80%
    19:00 +2°C° 0.1 mm 9 mps 742 mmHg 74%
    20:00 +2°C° 0 mm 8 mps 743 mmHg 73%
    21:00 +2°C° 0 mm 7 mps 744 mmHg 73%
    22:00 +2°C° 0 mm 6 mps 745 mmHg 72%
    23:00 +2°C° 0 mm 7 mps 745 mmHg 74%

    15 December, Sunday

    Time Temperature Precipitation Wind Pressure Humidity
    00:00 +2°C° 0 mm 7 mps 746 mmHg 76%
    01:00 +2°C° 0 mm 7 mps 746 mmHg 79%
    02:00 +2°C° 0 mm 6 mps 746 mmHg 80%
    03:00 +1°C° 0 mm 5 mps 747 mmHg 82%
    04:00 +1°C° 0 mm 4 mps 747 mmHg 84%
    05:00 +1°C° 0 mm 4 mps 747 mmHg 84%
    06:00 0°C° 0 mm 4 mps 747 mmHg 85%
    07:00 +1°C° 0 mm 3 mps 747 mmHg 85%
    08:00 +1°C° 0.3 mm 5 mps 746 mmHg 87%
    09:00 +2°C° 0.3 mm 6 mps 746 mmHg 88%
    10:00 +3°C° 0.3 mm 7 mps 745 mmHg 89%
    11:00 +5°C° 0.4 mm 8 mps 745 mmHg 83%
    12:00 +6°C° 0.4 mm 8 mps 745 mmHg 77%
    13:00 +7°C° 0.4 mm 8 mps 745 mmHg 71%
    14:00 +6°C° 0 mm 9 mps 746 mmHg 66%
    15:00 +5°C° 0 mm 10 mps 747 mmHg 62%
    16:00 +3°C° 0 mm 11 mps 748 mmHg 58%
    17:00 +2°C° 0 mm 10 mps 749 mmHg 61%
    18:00 +2°C° 0 mm 9 mps 751 mmHg 65%
    19:00 +1°C° 0 mm 8 mps 752 mmHg 68%
    20:00 0°C° 0 mm 7 mps 753 mmHg 69%
    21:00 +1°C° 0 mm 6 mps 754 mmHg 70%
    22:00 +1°C° 0 mm 6 mps 755 mmHg 70%
    23:00 0°C° 0 mm 5 mps 755 mmHg 73%

    16 December, Monday

    Time Temperature Precipitation Wind Pressure Humidity
    00:00 0°C° 0 mm 5 mps 755 mmHg 76%
    01:00 0°C° 0 mm 5 mps 755 mmHg 78%
    02:00 0°C° 0 mm 5 mps 755 mmHg 79%
    03:00 +1°C° 0 mm 5 mps 755 mmHg 81%
    04:00 +1°C° 0 mm 5 mps 755 mmHg 82%
    05:00 +1°C° 0 mm 5 mps 755 mmHg 83%
    06:00 +1°C° 0 mm 5 mps 755 mmHg 85%
    07:00 +1°C° 0 mm 4 mps 755 mmHg 86%
    08:00 +1°C° 0 mm 4 mps 756 mmHg 87%
    09:00 +3°C° 0 mm 4 mps 756 mmHg 87%
    10:00 +3°C° 0 mm 4 mps 757 mmHg 87%
    11:00 +3°C° 0 mm 4 mps 757 mmHg 85%
    12:00 +4°C° 0 mm 3 mps 756 mmHg 83%
    13:00 +5°C° 0 mm 3 mps 756 mmHg 82%
    14:00 +4°C° 0 mm 3 mps 756 mmHg 85%
    15:00 +4°C° 0 mm 3 mps 756 mmHg 88%
    16:00 +5°C° 0 mm 2 mps 756 mmHg 91%
    17:00 +4°C° 0 mm 3 mps 756 mmHg 91%
    18:00 +4°C° 0 mm 3 mps 756 mmHg 92%
    19:00 +4°C° 0 mm 3 mps 756 mmHg 93%
    20:00 +4°C° 0.1 mm 3 mps 756 mmHg 93%
    21:00 +4°C° 0.1 mm 3 mps 755 mmHg 94%
    22:00 +4°C° 0.1 mm 3 mps 755 mmHg 94%
    23:00 +5°C° 0.2 mm 3 mps 755 mmHg 94%

    17 December, Tuesday

    Time Temperature Precipitation Wind Pressure Humidity
    00:00 +5°C° 0.2 mm 3 mps 754 mmHg 94%
    01:00 +5°C° 0.2 mm 3 mps 754 mmHg 94%
    02:00 +5°C° 0 mm 3 mps 754 mmHg 90%
    03:00 +5°C° 0 mm 4 mps 754 mmHg 87%
    04:00 +4°C° 0 mm 4 mps 753 mmHg 84%
    05:00 +4°C° 0 mm 4 mps 753 mmHg 85%
    06:00 +4°C° 0 mm 4 mps 753 mmHg 85%
    07:00 +3°C° 0 mm 4 mps 753 mmHg 86%
    08:00 +4°C° 0 mm 4 mps 753 mmHg 85%
    09:00 +4°C° 0 mm 4 mps 753 mmHg 84%
    10:00 +5°C° 0 mm 5 mps 753 mmHg 83%
    11:00 +5°C° 0 mm 4 mps 753 mmHg 80%
    12:00 +6°C° 0 mm 4 mps 753 mmHg 77%
    13:00 +7°C° 0 mm 4 mps 752 mmHg 74%
    14:00 +7°C° 0 mm 4 mps 753 mmHg 76%
    15:00 +6°C° 0 mm 4 mps 753 mmHg 77%
    16:00 +6°C° 0 mm 4 mps 753 mmHg 78%
    17:00 +6°C° 0 mm 4 mps 753 mmHg 79%
    18:00 +6°C° 0 mm 4 mps 753 mmHg 80%
    19:00 +6°C° 0 mm 5 mps 753 mmHg 81%
    20:00 +7°C° 0 mm 5 mps 753 mmHg 81%
    21:00 +7°C° 0 mm 5 mps 753 mmHg 82%
    22:00 +7°C° 0 mm 5 mps 753 mmHg 82%
    23:00 +7°C° 0.4 mm 5 mps 753 mmHg 86%
    Show more